Helicity
431 390 366 345 380 400 427 484 461 328 200 149 168 98 104 112 93 98 86 94 72 120 131 118 116 112 119 109 106 106 96 107 97 84 79 83 95 85
481 427 331 347 353 369 376 370 345 353 303 249 225 171 152 113 110 123 99 129 140 159 134 121 122 124 120 119 119 114 112 118 110 93 86 95 97 92
366 347 319 326 345 331 321 322 347 304 221 385 293 186 190 152 138 141 148 187 177 155 126 121 135 135 129 136 134 124 120 125 126 100 107 102 99 97
345 345 326 347 298 305 289 246 269 298 266 310 339 286 194 155 181 169 177 192 196 159 133 127 135 130 136 145 142 134 128 127 144 109 108 106 105 101
335 333 362 329 301 277 237 216 245 317 263 241 301 302 248 220 241 234 222 207 168 150 129 131 132 131 138 145 140 145 126 142 139 125 123 110 110 106
290 313 342 322 290 260 231 209 265 323 274 223 272 288 258 257 267 266 245 208 199 170 151 149 135 135 137 145 140 135 124 133 141 147 132 111 114 108
245 292 308 284 240 266 270 258 282 319 295 259 287 263 283 289 248 272 239 253 206 210 213 189 175 177 157 143 148 135 122 133 164 173 148 99 106 106
256 247 234 258 239 240 202 256 274 316 314 297 256 221 192 248 280 279 335 303 216 190 226 180 194 190 180 163 147 123 116 151 224 191 149 94 103 108
245 263 271 243 202 227 217 219 209 212 269 262 228 204 235 255 340 326 299 308 275 200 283 219 208 169 159 145 115 109 117 188 234 185 132 95 106 105
275 262 241 265 211 229 261 231 217 243 239 227 221 259 262 275 287 291 344 398 346 240 239 206 205 170 172 131 111 109 124 204 206 166 116 108 98 110
236 281 223 229 215 236 250 245 234 260 240 207 215 222 242 233 327 392 329 326 270 221 192 211 194 232 198 171 146 121 144 173 159 134 117 109 101 114
262 250 158 188 228 217 259 287 229 217 261 254 217 187 188 181 268 269 329 307 329 258 195 261 235 266 242 199 206 176 202 158 168 139 128 114 104 114
263 265 208 171 209 198 178 276 192 235 219 283 276 251 230 205 206 229 220 270 324 226 140 328 282 279 289 245 230 175 187 210 223 168 128 111 103 105
243 253 245 198 196 188 193 151 267 303 348 327 305 284 247 236 239 239 250 265 258 191 174 281 238 282 319 317 297 201 202 204 191 146 125 107 104 95
258 270 219 230 226 207 219 245 299 364 346 337 294 268 248 286 326 371 353 355 358 311 277 235 219 283 292 288 258 172 201 167 165 141 123 115 119 112
208 288 250 224 264 256 335 300 318 320 314 335 334 394 387 340 326 355 386 381 397 376 365 285 255 288 318 315 218 184 191 151 138 127 120 125 115 107
350 359 315 281 327 383 395 370 362 340 337 413 421 400 399 388 377 352 378 401 393 403 398 399 363 378 368 246 225 202 192 173 151 129 134 141 138 118
391 384 328 326 337 405 336 396 381 336 352 398 389 396 410 399 415 371 369 372 416 391 402 399 411 413 316 256 245 205 190 167 139 130 132 142 134 116
361 340 347 337 327 329 346 359 389 350 354 377 419 411 417 417 416 418 427 451 470 502 443 384 325 317 280 229 197 190 174 158 142 131 126 126 128 120
326 335 316 320 286 305 340 423 428 437 383 412 437 471 459 513 531 535 531 582 658 639 412 333 272 254 226 191 181 165 183 159 139 133 127 118 101 87
265 346 313 289 317 282 313 427 475 462 448 419 482 505 520 584 537 560 603 624 684 475 395 320 222 230 263 259 209 179 160 131 127 132 131 130 120 111
334 297 343 317 322 368 349 442 468 465 463 429 486 542 551 618 681 673 716 765 649 414 406 339 288 291 261 194 192 176 157 146 135 131 107 94 116 110
351 353 370 377 373 359 392 401 434 418 437 473 502 553 643 755 741 692 723 837 462 465 387 360 329 290 229 201 191 185 177 166 152 154 127 108 82 49
Wind_Speed
71 64 60 55 49 45 42 41 36 31 33 32 25 20 17 15 12 7 2 4 7 11 16 19 23 27 31 34 37 41 44 48 51 54 55 58 60 61
74 67 60 56 49 46 43 42 40 33 28 38 36 24 20 16 13 10 7 5 4 8 12 16 19 23 27 31 34 38 42 46 50 52 54 56 58 60
77 71 65 57 52 48 45 43 41 37 31 36 33 23 22 20 15 11 9 7 2 3 8 11 15 19 23 27 32 35 40 44 48 51 52 54 57 61
82 73 67 59 56 49 47 47 44 40 35 28 29 26 26 22 18 15 10 7 4 0 4 9 12 15 19 24 29 33 37 41 47 49 52 54 57 59
80 75 68 60 57 53 50 49 47 42 34 31 28 31 28 21 18 16 12 9 6 2 5 6 8 12 16 21 25 30 34 38 44 47 51 53 56 60
79 75 69 61 56 52 51 49 44 42 39 32 32 29 28 25 22 19 15 11 9 9 9 7 8 11 14 18 22 26 31 37 43 46 49 52 55 58
80 76 73 63 56 50 50 48 44 42 39 36 33 31 27 26 28 19 17 14 14 14 11 10 11 13 15 16 19 24 28 34 43 47 48 49 53 58
80 76 76 69 59 50 48 45 43 42 42 39 38 33 29 26 23 22 18 16 19 14 12 13 13 14 14 17 18 22 26 32 43 47 46 47 52 55
78 79 76 70 62 52 48 44 43 41 40 37 33 30 25 27 23 22 21 20 19 18 11 16 16 16 14 15 18 21 26 33 41 43 41 44 49 52
79 80 79 70 63 53 49 47 47 46 43 40 35 31 32 24 23 22 20 18 21 21 14 21 18 18 17 17 20 20 24 33 37 38 39 43 47 50
79 77 80 75 64 55 50 48 49 50 47 43 37 30 26 19 19 17 18 17 23 25 15 23 23 21 23 22 20 15 25 32 32 33 36 43 46 49
79 79 77 75 66 59 54 47 48 48 45 43 38 32 27 22 20 20 18 19 21 26 18 18 23 22 28 27 20 24 30 30 28 30 36 42 47 48
80 83 80 71 68 64 57 50 48 44 44 43 39 35 28 23 21 20 18 19 19 27 18 14 22 19 28 31 26 25 32 31 29 30 38 44 47 48
82 76 78 72 67 63 59 58 48 42 43 40 38 36 31 27 23 20 18 19 22 27 10 13 24 16 23 30 32 30 34 29 27 31 37 44 45 47
81 78 73 66 63 64 61 54 47 45 44 42 41 39 34 29 21 20 18 16 19 20 13 17 18 13 21 28 33 37 34 26 26 31 37 41 44 45
72 72 72 70 65 66 64 56 55 48 45 44 42 37 30 28 26 23 21 17 18 20 22 19 16 16 22 29 36 36 28 28 25 32 38 40 42 43
66 65 71 68 68 65 65 62 56 50 45 40 38 35 32 30 28 24 21 17 20 17 19 22 21 22 27 29 36 30 23 26 29 34 38 43 42 44
68 75 71 69 68 66 64 63 57 52 46 40 38 36 34 31 28 26 22 22 19 17 18 14 14 20 30 36 36 24 23 25 30 36 38 43 44 46
70 74 79 73 68 64 62 65 59 53 46 45 42 41 37 30 29 28 26 22 21 18 19 18 17 22 32 37 31 26 24 26 32 37 39 42 48 51
73 75 77 74 70 66 63 64 61 55 53 50 48 44 39 36 33 32 30 28 22 21 25 23 21 23 30 28 30 25 27 27 32 37 40 44 44 45
66 72 70 75 72 70 63 63 58 55 55 56 51 45 44 41 40 36 33 29 27 30 28 25 22 19 23 24 28 27 26 29 32 37 42 48 52 51
58 65 72 73 73 70 64 63 58 55 55 54 51 49 45 42 43 38 32 30 28 30 25 18 16 17 23 24 25 25 25 30 36 39 39 39 47 55
53 61 64 67 75 71 67 62 62 56 57 56 50 46 44 40 39 38 33 29 28 24 19 16 15 20 19 20 22 25 29 33 37 40 40 44 45 44
Wind_Direction
212 213 217 220 223 218 214 203 196 222 224 238 240 219 205 206 193 187 168 106 58 46 46 41 37 33 31 29 28 27 26 24 21 18 17 15 16 17
212 212 217 219 221 221 215 215 227 236 227 244 246 229 211 213 195 193 177 155 79 41 39 37 34 30 27 26 25 24 24 22 19 16 16 16 15 14
212 213 216 216 219 223 221 221 227 234 237 247 245 230 215 197 211 208 183 176 169 62 39 36 29 27 24 22 21 21 20 19 17 14 15 14 13 11
211 213 215 218 221 222 223 224 228 236 241 227 240 228 228 216 204 192 210 224 216 117 33 18 24 22 19 17 16 16 16 14 13 13 11 10 9 10
211 213 213 215 220 224 226 226 231 234 237 238 241 240 243 217 218 247 239 248 268 279 335 357 12 8 10 11 12 12 12 14 11 9 8 6 7 7
212 214 213 215 217 221 225 226 229 229 238 236 242 233 234 242 237 221 231 258 263 303 318 336 346 355 359 4 6 9 9 8 7 6 5 4 5 5
214 216 216 218 217 218 223 225 223 228 231 233 236 244 235 230 216 235 237 254 282 297 304 317 329 339 348 355 1 3 3 3 1 1 2 3 3 3
213 217 219 221 220 217 223 220 215 220 227 234 238 236 232 226 223 226 248 258 281 281 284 293 318 321 334 344 351 353 356 358 358 358 360 2 1 1
216 219 219 222 223 222 225 224 221 224 225 229 225 232 234 215 221 228 236 255 279 312 289 292 312 308 322 334 340 347 350 353 354 357 359 359 359 0
216 220 219 219 221 221 224 228 231 233 236 241 242 246 257 237 224 248 244 273 299 312 310 309 313 310 323 326 332 340 347 349 352 356 358 357 358 359
219 221 221 220 219 216 222 227 233 237 241 246 251 252 253 238 235 250 250 248 284 297 290 319 323 323 327 329 336 341 345 346 350 354 356 356 357 359
221 221 219 220 217 217 222 224 228 232 233 242 250 255 253 245 228 234 239 247 282 298 288 301 323 331 330 332 334 342 346 345 350 354 354 354 355 358
222 220 221 219 217 218 225 226 230 231 234 240 245 250 251 248 247 257 251 259 268 303 312 293 315 323 337 343 341 344 346 348 351 352 351 353 355 358
221 222 221 217 217 219 227 236 233 231 235 237 241 244 245 249 252 258 266 281 292 306 297 302 321 315 329 336 341 345 346 349 351 350 352 353 357 359
225 222 221 216 217 222 226 230 226 234 235 237 239 244 248 254 255 268 279 289 304 315 315 308 322 323 330 333 337 342 346 348 352 351 352 354 357 359
225 224 223 224 221 224 228 228 235 235 231 236 240 245 248 247 252 261 267 270 290 306 321 322 323 328 330 336 338 342 348 352 357 353 351 353 357 0
221 221 221 225 223 225 229 232 236 237 237 238 236 237 241 245 252 251 259 260 279 280 302 320 333 339 340 337 337 344 349 351 353 351 352 352 357 358
223 222 223 225 225 227 227 231 234 235 236 234 235 235 238 240 242 248 255 264 265 274 292 307 318 331 336 342 346 346 350 349 350 350 353 352 354 357
231 228 226 226 228 227 230 229 230 235 234 234 235 241 243 244 240 244 252 258 266 277 287 296 301 316 322 326 341 351 345 347 347 348 352 354 353 355
233 230 227 229 232 233 233 231 234 236 236 236 240 240 241 238 241 242 249 255 255 275 287 289 293 310 320 325 330 344 348 347 347 349 351 354 355 357
237 234 231 231 234 236 237 234 232 233 235 239 240 240 242 243 245 249 249 246 256 282 279 279 294 321 334 343 337 342 346 350 353 352 353 351 352 355
241 238 235 233 235 237 239 238 235 235 237 237 242 243 241 247 246 243 238 242 261 277 277 286 305 315 323 329 335 341 347 349 353 355 357 358 355 352
242 242 238 235 235 237 238 240 241 238 239 241 241 241 240 242 244 242 238 250 263 266 255 274 298 315 323 333 337 341 343 346 350 353 359 360 357 355